STARLINK-32079, 60336

Orbit data source: Space-Track

STARLINK-32079, 60336 is a payload satellite owned by SpaceX/Seattle (US) in LEO that was launched on Fri, 02 Aug 2024 UTC via an FALCON 9 launch vehicle from the Air Force Eastern Test Range (AFETR). Payload-class satellites include a variety of spacecraft equipped with specific instruments for various scientific and technological missions. These include communications satellites like Starlink; space stations such as the ISS; scientific satellites like the Hubble; Earth observation satellites from companies like Planet Labs, Umbra, and HawkEye 360; GPS; miniature CubeSats for education and research; and military/defense satellites.

Loading next visibility...
Identifier
60336, 2024-136H
Orbit
LEO
Last TLE update
11 hours ago
Origin
Manufacturer
SpaceX/Seattle
Mission
Operational Commercial Communications
Bus & Motor
STARLINK V2M, Unknown motor
Mass
730 kg wet, ~700 kg dry
Launch date (UTC)
2024-08-02 (11 months ago)
Launch vehicle
FALCON 9
Launch site
Air Force Eastern Test Range (AFETR)
Object type
Payload
Rocket body
Debris
Shape & HBR
Box + 2 Pan, 29 m
Radar Cross Section
33.884 m², Large (>1 m²)

Expand to show TLE details & history

TLE from 11 hours ago
0 STARLINK-32079
1 60336U 24136H   25186.28047944 -.00001081  00000-0 -24395-4 0  9993
2 60336  53.1596 144.9624 0001404  92.5706 267.5456 15.30186026 52999
Epoch: 2025-07-05T06:43Z
TLE epoch observation values (Epoch: 2025-07-05T06:43:53.423Z)
Latitude
0.00001°
Longitude
120.46903°
Altitude
476.198 km
Speed
7.629 km/s
True Right ascension
09h 39m 50s
True Declination
0° 00' 00"
Sunlit
Object was in daylight at epoch
Visualization orbit readout
Latitude
-20.3123°
Longitude
102.35741°
Altitude
481.39 km
Speed
7.625 km/s
Apparent Right ascension
11h 45m 10s
Apparent Declination
-55° 07' 21"
Sunlit
Object is in daylight
Visualization observer readout
Local Sidereal Time
05:30:58
Azimuth
136.741° SSE
Elevation
-33.611°
Doppler factor
1
Orbital elements
Apogee altitude
476.476 km
Perigee altitude
474.551 km
Semi-major axis
6,853.65 km
Eccentricity
0.00014
Inclination
53.1596°
RAAN
144.9624°
Arg. of periapsis
92.5706°
True anomaly
Unknown
Mean anomaly
267.5456°
Eccentric anomaly
Unknown
Mean motion
3.82525 °/min
Orbital period
94.11 mins
BSTAR
-0.000024395
Loading maneuver chart data...
Loading SW <> Apogee altitude chart data...
Loading historical data...
Loading historical data...
Loading historical data...
Loading historical data...
Loading historical data...
Loading historical data...
Loading historical data...

STARLINK-32079 Visibility forecast

Observer location: undefined°, undefined°

Span
Click to sort rows by Start time (UTC) header in descending order
Start Az.
Max El. time (UTC)
Max El. Az.
Max El.
End time (UTC)
End Az.
5 mins2025-07-06 00:10:35.105Z237.494° WSW2025-07-06 00:12:35.105Z302.7° NW44.114°2025-07-06 00:15:35.105Z46.325° ENE
4 mins2025-07-06 05:07:35.105Z347.107° N2025-07-06 05:09:35.105Z26.257° NE17.24°2025-07-06 05:11:35.105Z62.388° ENE
5 mins2025-07-06 06:45:35.105Z310.932° NW2025-07-06 06:47:35.105Z323.456° NNW44.693°2025-07-06 06:50:35.105Z130.078° SE
|